Year,Month,Day,Hour,Minute,Value (Times are PST for temperature in C)
2013,07,22,00,00,13.40
2013,07,22,00,01,13.40
2013,07,22,00,02,13.40
2013,07,22,00,03,13.50
2013,07,22,00,04,13.50
2013,07,22,00,05,13.50
2013,07,22,00,06,13.50
2013,07,22,00,07,13.50
2013,07,22,00,08,13.60
2013,07,22,00,09,13.60
2013,07,22,00,10,13.60
2013,07,22,00,11,13.60
2013,07,22,00,12,13.60
2013,07,22,00,13,13.60
2013,07,22,00,14,13.60
2013,07,22,00,15,13.60
2013,07,22,00,16,13.60
2013,07,22,00,17,13.60
2013,07,22,00,18,13.60
2013,07,22,00,19,13.60
2013,07,22,00,20,13.60
2013,07,22,00,21,13.60
2013,07,22,00,22,13.60
2013,07,22,00,23,13.60
2013,07,22,00,24,13.60
2013,07,22,00,25,13.60
2013,07,22,00,26,13.60
2013,07,22,00,27,13.60
2013,07,22,00,28,13.50
2013,07,22,00,29,13.50
2013,07,22,00,30,13.50
2013,07,22,00,31,13.50
2013,07,22,00,32,13.50
2013,07,22,00,33,13.50
2013,07,22,00,34,13.50
2013,07,22,00,35,13.40
2013,07,22,00,36,13.40
2013,07,22,00,37,13.40
2013,07,22,00,38,13.40
2013,07,22,00,39,13.40
2013,07,22,00,40,13.40
2013,07,22,00,41,13.30
2013,07,22,00,42,13.30
2013,07,22,00,43,13.30
2013,07,22,00,44,13.30
2013,07,22,00,45,13.30
2013,07,22,00,46,13.30
2013,07,22,00,47,13.30
2013,07,22,00,48,13.20
2013,07,22,00,49,13.20
2013,07,22,00,50,13.20
2013,07,22,00,51,13.20
2013,07,22,00,52,13.20
2013,07,22,00,53,13.20
2013,07,22,00,54,13.20
2013,07,22,00,55,13.20
2013,07,22,00,56,13.10
2013,07,22,00,57,13.10
2013,07,22,00,58,13.10
2013,07,22,00,59,13.10
2013,07,22,01,00,13.10
2013,07,22,01,01,13.10
2013,07,22,01,02,13.10
2013,07,22,01,03,13.10
2013,07,22,01,04,13.10
2013,07,22,01,05,13.00
2013,07,22,01,06,13.00
2013,07,22,01,07,13.00
2013,07,22,01,08,13.00
2013,07,22,01,09,13.00
2013,07,22,01,10,13.00
2013,07,22,01,11,13.00
2013,07,22,01,12,13.00
2013,07,22,01,13,12.90
2013,07,22,01,14,12.90
2013,07,22,01,15,12.90
2013,07,22,01,16,12.90
2013,07,22,01,17,12.90
2013,07,22,01,18,12.90
2013,07,22,01,19,12.90
2013,07,22,01,20,12.90
2013,07,22,01,21,12.90
2013,07,22,01,22,12.90
2013,07,22,01,23,12.90
2013,07,22,01,24,12.90
2013,07,22,01,25,12.90
2013,07,22,01,26,12.90
2013,07,22,01,27,12.90
2013,07,22,01,28,12.90
2013,07,22,01,29,12.90
2013,07,22,01,30,12.90
2013,07,22,01,31,12.90
2013,07,22,01,32,12.90
2013,07,22,01,33,12.90
2013,07,22,01,34,12.90
2013,07,22,01,35,12.90
2013,07,22,01,36,12.90
2013,07,22,01,37,12.90
2013,07,22,01,38,12.90
2013,07,22,01,39,12.90
2013,07,22,01,40,12.90
2013,07,22,01,41,12.90
2013,07,22,01,42,12.90
2013,07,22,01,43,12.90
2013,07,22,01,44,12.90
2013,07,22,01,45,12.90
2013,07,22,01,46,12.90
2013,07,22,01,47,12.90
2013,07,22,01,48,12.90
2013,07,22,01,49,12.90
2013,07,22,01,50,12.90
2013,07,22,01,51,12.90
2013,07,22,01,52,12.90
2013,07,22,01,53,12.90
2013,07,22,01,54,12.90
2013,07,22,01,55,13.00
2013,07,22,01,56,13.00
2013,07,22,01,57,13.00
2013,07,22,01,58,13.00
2013,07,22,01,59,13.00
2013,07,22,02,00,13.00
2013,07,22,02,01,13.00
2013,07,22,02,02,13.00
2013,07,22,02,03,13.00
2013,07,22,02,04,13.00
2013,07,22,02,05,13.00
2013,07,22,02,06,13.00
2013,07,22,02,07,13.00
2013,07,22,02,08,13.00
2013,07,22,02,09,13.00
2013,07,22,02,10,13.00
2013,07,22,02,11,13.00
2013,07,22,02,12,13.00
2013,07,22,02,13,13.00
2013,07,22,02,14,13.00
2013,07,22,02,15,13.00
2013,07,22,02,16,13.00
2013,07,22,02,17,13.10
2013,07,22,02,18,13.10
2013,07,22,02,19,13.10
2013,07,22,02,20,13.10
2013,07,22,02,21,13.10
2013,07,22,02,22,13.10
2013,07,22,02,23,13.10
2013,07,22,02,24,13.10
2013,07,22,02,25,13.10
2013,07,22,02,26,13.10
2013,07,22,02,27,13.10
2013,07,22,02,28,13.10
2013,07,22,02,29,13.10
2013,07,22,02,30,13.10
2013,07,22,02,31,13.10
2013,07,22,02,32,13.10
2013,07,22,02,33,13.10
2013,07,22,02,34,13.10
2013,07,22,02,35,13.10
2013,07,22,02,36,13.10
2013,07,22,02,37,13.10
2013,07,22,02,38,13.10
2013,07,22,02,39,13.10
2013,07,22,02,40,13.10
2013,07,22,02,41,13.20
2013,07,22,02,42,13.20
2013,07,22,02,43,13.20
2013,07,22,02,44,13.20
2013,07,22,02,45,13.20
2013,07,22,02,46,13.20
2013,07,22,02,47,13.20
2013,07,22,02,48,13.20
2013,07,22,02,49,13.20
2013,07,22,02,50,13.20
2013,07,22,02,51,13.20
2013,07,22,02,52,13.20
2013,07,22,02,53,13.20
2013,07,22,02,54,13.20
2013,07,22,02,55,13.20
2013,07,22,02,56,13.20
2013,07,22,02,57,13.20
2013,07,22,02,58,13.20
2013,07,22,02,59,13.20
2013,07,22,03,00,13.20
2013,07,22,03,01,13.20
2013,07,22,03,02,13.10
2013,07,22,03,03,13.10
2013,07,22,03,04,13.10
2013,07,22,03,05,13.10
2013,07,22,03,06,13.10
2013,07,22,03,07,13.10
2013,07,22,03,08,13.10
2013,07,22,03,09,13.10
2013,07,22,03,10,13.10
2013,07,22,03,11,13.20
2013,07,22,03,12,13.20
2013,07,22,03,13,13.20
2013,07,22,03,14,13.20
2013,07,22,03,15,13.10
2013,07,22,03,16,13.10
2013,07,22,03,17,13.10
2013,07,22,03,18,13.20
2013,07,22,03,19,13.20
2013,07,22,03,20,13.20
2013,07,22,03,21,13.20
2013,07,22,03,22,13.20
2013,07,22,03,23,13.20
2013,07,22,03,24,13.10
2013,07,22,03,25,13.20
2013,07,22,03,26,13.10
2013,07,22,03,27,13.10
2013,07,22,03,28,13.10
2013,07,22,03,29,13.10
2013,07,22,03,30,13.10
2013,07,22,03,31,13.10
2013,07,22,03,32,13.10
2013,07,22,03,33,13.10
2013,07,22,03,34,13.10
2013,07,22,03,35,13.10
2013,07,22,03,36,13.20
2013,07,22,03,37,13.20
2013,07,22,03,38,13.20
2013,07,22,03,39,13.20
2013,07,22,03,40,13.20
2013,07,22,03,41,13.20
2013,07,22,03,42,13.20
2013,07,22,03,43,13.20
2013,07,22,03,44,13.20
2013,07,22,03,45,13.20
2013,07,22,03,46,13.20
2013,07,22,03,47,13.20
2013,07,22,03,48,13.20
2013,07,22,03,49,13.10
2013,07,22,03,50,13.10
2013,07,22,03,51,13.10
2013,07,22,03,52,13.10
2013,07,22,03,53,13.00
2013,07,22,03,54,12.90
2013,07,22,03,55,12.90
2013,07,22,03,56,12.90
2013,07,22,03,57,12.80
2013,07,22,03,58,12.80
2013,07,22,03,59,12.80
2013,07,22,04,00,12.80
2013,07,22,04,01,12.80
2013,07,22,04,02,12.80
2013,07,22,04,03,12.80
2013,07,22,04,04,12.80
2013,07,22,04,05,12.70
2013,07,22,04,06,12.70
2013,07,22,04,07,12.70
2013,07,22,04,08,12.70
2013,07,22,04,09,12.70
2013,07,22,04,10,12.70
2013,07,22,04,11,12.70
2013,07,22,04,12,12.70
2013,07,22,04,13,12.70
2013,07,22,04,14,12.70
2013,07,22,04,15,12.70
2013,07,22,04,16,12.70
2013,07,22,04,17,12.70
2013,07,22,04,18,12.70
2013,07,22,04,19,12.60
2013,07,22,04,20,12.60
2013,07,22,04,21,12.60
2013,07,22,04,22,12.60
2013,07,22,04,23,12.60
2013,07,22,04,24,12.60
2013,07,22,04,25,12.60
2013,07,22,04,26,12.60
2013,07,22,04,27,12.60
2013,07,22,04,28,12.60
2013,07,22,04,29,12.60
2013,07,22,04,30,12.60
2013,07,22,04,31,12.60
2013,07,22,04,32,12.60
2013,07,22,04,33,12.60
2013,07,22,04,34,12.60
2013,07,22,04,35,12.60
2013,07,22,04,36,12.60
2013,07,22,04,37,12.60
2013,07,22,04,38,12.60
2013,07,22,04,39,12.60
2013,07,22,04,40,12.60
2013,07,22,04,41,12.60
2013,07,22,04,42,12.50
2013,07,22,04,43,12.50
2013,07,22,04,44,12.50
2013,07,22,04,45,12.50
2013,07,22,04,46,12.50
2013,07,22,04,47,12.50
2013,07,22,04,48,12.40
2013,07,22,04,49,12.40
2013,07,22,04,50,12.40
2013,07,22,04,51,12.40
2013,07,22,04,52,12.40
2013,07,22,04,53,12.40
2013,07,22,04,54,12.30
2013,07,22,04,55,12.30
2013,07,22,04,56,12.30
2013,07,22,04,57,12.30
2013,07,22,04,58,12.30
2013,07,22,04,59,12.20
2013,07,22,05,00,12.20
2013,07,22,05,01,12.20
2013,07,22,05,02,12.20
2013,07,22,05,03,12.20
2013,07,22,05,04,12.20
2013,07,22,05,05,12.20
2013,07,22,05,06,12.20
2013,07,22,05,07,12.20
2013,07,22,05,08,12.20
2013,07,22,05,09,12.20
2013,07,22,05,10,12.20
2013,07,22,05,11,12.20
2013,07,22,05,12,12.20
2013,07,22,05,13,12.20
2013,07,22,05,14,12.20
2013,07,22,05,15,12.20
2013,07,22,05,16,12.20
2013,07,22,05,17,12.20
2013,07,22,05,18,12.20
2013,07,22,05,19,12.20
2013,07,22,05,20,12.10
2013,07,22,05,21,12.10
2013,07,22,05,22,12.10
2013,07,22,05,23,12.10
2013,07,22,05,24,12.10
2013,07,22,05,25,12.20
2013,07,22,05,26,12.10
2013,07,22,05,27,12.10
2013,07,22,05,28,12.10
2013,07,22,05,29,12.10
2013,07,22,05,30,12.00
2013,07,22,05,31,12.00
2013,07,22,05,32,11.90
2013,07,22,05,33,11.90
2013,07,22,05,34,11.80
2013,07,22,05,35,11.80
2013,07,22,05,36,11.80
2013,07,22,05,37,11.80
2013,07,22,05,38,11.70
2013,07,22,05,39,11.70
2013,07,22,05,40,11.70
2013,07,22,05,41,11.70
2013,07,22,05,42,11.70
2013,07,22,05,43,11.70
2013,07,22,05,44,11.60
2013,07,22,05,45,11.60
2013,07,22,05,46,11.60
2013,07,22,05,47,11.60
2013,07,22,05,48,11.50
2013,07,22,05,49,11.50
2013,07,22,05,50,11.50
2013,07,22,05,51,11.50
2013,07,22,05,52,11.50
2013,07,22,05,53,11.50
2013,07,22,05,54,11.40
2013,07,22,05,55,11.40
2013,07,22,05,56,11.40
2013,07,22,05,57,11.40
2013,07,22,05,58,11.40
2013,07,22,05,59,11.40
2013,07,22,06,00,11.50
2013,07,22,06,01,11.50
2013,07,22,06,02,11.50
2013,07,22,06,03,11.60
2013,07,22,06,04,11.60
2013,07,22,06,05,11.60
2013,07,22,06,06,11.60
2013,07,22,06,07,11.60
2013,07,22,06,08,11.60
2013,07,22,06,09,11.60
2013,07,22,06,10,11.60
2013,07,22,06,11,11.60
2013,07,22,06,12,11.60
2013,07,22,06,13,11.50
2013,07,22,06,14,11.50
2013,07,22,06,15,11.50
2013,07,22,06,16,11.50
2013,07,22,06,17,11.40
2013,07,22,06,18,11.40
2013,07,22,06,19,11.40
2013,07,22,06,20,11.50
2013,07,22,06,21,11.50
2013,07,22,06,22,11.50
2013,07,22,06,23,11.50
2013,07,22,06,24,11.50
2013,07,22,06,25,11.60
2013,07,22,06,26,11.60
2013,07,22,06,27,11.60
2013,07,22,06,28,11.60
2013,07,22,06,29,11.60
2013,07,22,06,30,11.60
2013,07,22,06,31,11.60
2013,07,22,06,32,11.60
2013,07,22,06,33,11.70
2013,07,22,06,34,11.70
2013,07,22,06,35,11.70
2013,07,22,06,36,11.70
2013,07,22,06,37,11.70
2013,07,22,06,38,11.70
2013,07,22,06,39,11.70
2013,07,22,06,40,11.70
2013,07,22,06,41,11.80
2013,07,22,06,42,11.80
2013,07,22,06,43,11.80
2013,07,22,06,44,11.80
2013,07,22,06,45,11.80
2013,07,22,06,46,11.80
2013,07,22,06,47,11.80
2013,07,22,06,48,11.80
2013,07,22,06,49,11.80
2013,07,22,06,50,11.80
2013,07,22,06,51,11.80
2013,07,22,06,52,11.90
2013,07,22,06,53,11.90
2013,07,22,06,54,11.90
2013,07,22,06,55,11.90
2013,07,22,06,56,11.90
2013,07,22,06,57,11.90
2013,07,22,06,58,12.00
2013,07,22,06,59,12.00
2013,07,22,07,00,12.00
2013,07,22,07,01,12.00
2013,07,22,07,02,12.10
2013,07,22,07,03,12.10
2013,07,22,07,04,12.10
2013,07,22,07,05,12.10
2013,07,22,07,06,12.20
2013,07,22,07,07,12.20
2013,07,22,07,08,12.30
2013,07,22,07,09,12.30
2013,07,22,07,10,12.40
2013,07,22,07,11,12.50
2013,07,22,07,12,12.50
2013,07,22,07,13,12.60
2013,07,22,07,14,12.60
2013,07,22,07,15,12.70
2013,07,22,07,16,12.80
2013,07,22,07,17,12.80
2013,07,22,07,18,12.90
2013,07,22,07,19,12.90
2013,07,22,07,20,13.00
2013,07,22,07,21,13.10
2013,07,22,07,22,13.10
2013,07,22,07,23,13.20
2013,07,22,07,24,13.20
2013,07,22,07,25,13.20
2013,07,22,07,26,13.30
2013,07,22,07,27,13.30
2013,07,22,07,28,13.30
2013,07,22,07,29,13.30
2013,07,22,07,30,13.40
2013,07,22,07,31,13.40
2013,07,22,07,32,13.40
2013,07,22,07,33,13.40
2013,07,22,07,34,13.50
2013,07,22,07,35,13.50
2013,07,22,07,36,13.60
2013,07,22,07,37,13.60
2013,07,22,07,38,13.70
2013,07,22,07,39,13.70
2013,07,22,07,40,13.70
2013,07,22,07,41,13.80
2013,07,22,07,42,13.80
2013,07,22,07,43,13.80
2013,07,22,07,44,13.90
2013,07,22,07,45,13.90
2013,07,22,07,46,13.90
2013,07,22,07,47,14.00
2013,07,22,07,48,14.10
2013,07,22,07,49,14.20
2013,07,22,07,50,14.30
2013,07,22,07,51,14.40
2013,07,22,07,52,14.50
2013,07,22,07,53,14.60
2013,07,22,07,54,14.70
2013,07,22,07,55,14.70
2013,07,22,07,56,14.70
2013,07,22,07,57,14.70
2013,07,22,07,58,14.70
2013,07,22,07,59,14.70
2013,07,22,08,00,14.70
2013,07,22,08,01,14.70
2013,07,22,08,02,14.70
2013,07,22,08,03,14.70
2013,07,22,08,04,14.70
2013,07,22,08,05,14.70
2013,07,22,08,06,14.70
2013,07,22,08,07,14.70
2013,07,22,08,08,14.70
2013,07,22,08,09,14.80
2013,07,22,08,10,14.80
2013,07,22,08,11,14.80
2013,07,22,08,12,14.80
2013,07,22,08,13,14.90
2013,07,22,08,14,14.90
2013,07,22,08,15,15.00
2013,07,22,08,16,15.00
2013,07,22,08,17,15.20
2013,07,22,08,18,15.30
2013,07,22,08,19,15.30
2013,07,22,08,20,15.50
2013,07,22,08,21,15.60
2013,07,22,08,22,15.60
2013,07,22,08,23,15.80
2013,07,22,08,24,15.80
2013,07,22,08,25,15.90
2013,07,22,08,26,15.90
2013,07,22,08,27,16.00
2013,07,22,08,28,16.10
2013,07,22,08,29,16.10
2013,07,22,08,30,16.20
2013,07,22,08,31,16.30
2013,07,22,08,32,16.40
2013,07,22,08,33,16.40
2013,07,22,08,34,16.40
2013,07,22,08,35,16.40
2013,07,22,08,36,16.40
2013,07,22,08,37,16.50
2013,07,22,08,38,16.40
2013,07,22,08,39,16.40
2013,07,22,08,40,16.30
2013,07,22,08,41,16.20
2013,07,22,08,42,16.20
2013,07,22,08,43,16.10
2013,07,22,08,44,16.00
2013,07,22,08,45,15.90
2013,07,22,08,46,15.90
2013,07,22,08,47,15.90
2013,07,22,08,48,15.90
2013,07,22,08,49,15.80
2013,07,22,08,50,15.80
2013,07,22,08,51,15.80
2013,07,22,08,52,15.80
2013,07,22,08,53,15.80
2013,07,22,08,54,15.80
2013,07,22,08,55,15.80
2013,07,22,08,56,15.80
2013,07,22,08,57,15.90
2013,07,22,08,58,15.90
2013,07,22,08,59,15.90
2013,07,22,09,00,15.90
2013,07,22,09,01,16.00
2013,07,22,09,02,16.00
2013,07,22,09,03,15.90
2013,07,22,09,04,15.90
2013,07,22,09,05,15.90
2013,07,22,09,06,15.90
2013,07,22,09,07,15.80
2013,07,22,09,08,15.80
2013,07,22,09,09,15.80
2013,07,22,09,10,15.90
2013,07,22,09,11,15.80
2013,07,22,09,12,15.80
2013,07,22,09,13,15.90
2013,07,22,09,14,15.80
2013,07,22,09,15,15.80
2013,07,22,09,16,15.80
2013,07,22,09,17,15.70
2013,07,22,09,18,15.70
2013,07,22,09,19,15.70
2013,07,22,09,20,15.80
2013,07,22,09,21,15.80
2013,07,22,09,22,15.80
2013,07,22,09,23,15.80
2013,07,22,09,24,15.90
2013,07,22,09,25,16.00
2013,07,22,09,26,16.00
2013,07,22,09,27,16.00
2013,07,22,09,28,16.00
2013,07,22,09,29,16.00
2013,07,22,09,30,16.00
2013,07,22,09,31,16.00
2013,07,22,09,32,16.10
2013,07,22,09,33,16.10
2013,07,22,09,34,16.10
2013,07,22,09,35,16.10
2013,07,22,09,36,16.10
2013,07,22,09,37,16.10
2013,07,22,09,38,16.10
2013,07,22,09,39,16.00
2013,07,22,09,40,16.00
2013,07,22,09,41,15.90
2013,07,22,09,42,15.90
2013,07,22,09,43,16.00
2013,07,22,09,44,16.10
2013,07,22,09,45,16.00
2013,07,22,09,46,16.00
2013,07,22,09,47,16.10
2013,07,22,09,48,16.10
2013,07,22,09,49,16.10
2013,07,22,09,50,16.10
2013,07,22,09,51,16.20
2013,07,22,09,52,16.20
2013,07,22,09,53,16.20
2013,07,22,09,54,16.20
2013,07,22,09,55,16.20
2013,07,22,09,56,16.10
2013,07,22,09,57,16.00
2013,07,22,09,58,15.90
2013,07,22,09,59,15.80
2013,07,22,10,00,15.80
2013,07,22,10,01,15.70
2013,07,22,10,02,15.70
2013,07,22,10,03,15.70
2013,07,22,10,04,15.70
2013,07,22,10,05,15.60
2013,07,22,10,06,15.50
2013,07,22,10,07,15.40
2013,07,22,10,08,15.30
2013,07,22,10,09,15.20
2013,07,22,10,10,15.10
2013,07,22,10,11,15.00
2013,07,22,10,12,15.00
2013,07,22,10,13,14.90
2013,07,22,10,14,14.90
2013,07,22,10,15,14.90
2013,07,22,10,16,15.00
2013,07,22,10,17,15.00
2013,07,22,10,18,15.00
2013,07,22,10,19,15.00
2013,07,22,10,20,15.00
2013,07,22,10,21,14.90
2013,07,22,10,22,14.90
2013,07,22,10,23,14.90
2013,07,22,10,24,15.00
2013,07,22,10,25,15.00
2013,07,22,10,26,15.00
2013,07,22,10,27,15.10
2013,07,22,10,28,15.00
2013,07,22,10,29,15.00
2013,07,22,10,30,15.00
2013,07,22,10,31,14.90
2013,07,22,10,32,14.80
2013,07,22,10,33,14.80
2013,07,22,10,34,14.80
2013,07,22,10,35,14.80
2013,07,22,10,36,14.90
2013,07,22,10,37,14.90
2013,07,22,10,38,14.90
2013,07,22,10,39,15.00
2013,07,22,10,40,15.10
2013,07,22,10,41,15.20
2013,07,22,10,42,15.20
2013,07,22,10,43,15.20
2013,07,22,10,44,15.20
2013,07,22,10,45,15.10
2013,07,22,10,46,15.00
2013,07,22,10,47,14.90
2013,07,22,10,48,14.80
2013,07,22,10,49,14.80
2013,07,22,10,50,14.80
2013,07,22,10,51,14.80
2013,07,22,10,52,14.70
2013,07,22,10,53,14.70
2013,07,22,10,54,14.70
2013,07,22,10,55,14.50
2013,07,22,10,56,14.40
2013,07,22,10,57,14.40
2013,07,22,10,58,14.40
2013,07,22,10,59,14.50
2013,07,22,11,00,14.50
2013,07,22,11,01,14.50
2013,07,22,11,02,14.50
2013,07,22,11,03,14.50
2013,07,22,11,04,14.40
2013,07,22,11,05,14.40
2013,07,22,11,06,14.30
2013,07,22,11,07,14.20
2013,07,22,11,08,14.10
2013,07,22,11,09,14.00
2013,07,22,11,10,13.90
2013,07,22,11,11,13.90
2013,07,22,11,12,13.80
2013,07,22,11,13,13.70
2013,07,22,11,14,13.60
2013,07,22,11,15,13.60
2013,07,22,11,16,13.60
2013,07,22,11,17,13.70
2013,07,22,11,18,13.70
2013,07,22,11,19,13.70
2013,07,22,11,20,13.60
2013,07,22,11,21,13.60
2013,07,22,11,22,13.50
2013,07,22,11,23,13.50
2013,07,22,11,24,13.60
2013,07,22,11,25,13.60
2013,07,22,11,26,13.60
2013,07,22,11,27,13.60
2013,07,22,11,28,13.60
2013,07,22,11,29,13.70
2013,07,22,11,30,13.60
2013,07,22,11,31,13.70
2013,07,22,11,32,13.70
2013,07,22,11,33,13.70
2013,07,22,11,34,13.80
2013,07,22,11,35,13.80
2013,07,22,11,36,13.80
2013,07,22,11,37,13.90
2013,07,22,11,38,13.90
2013,07,22,11,39,13.90
2013,07,22,11,40,13.80
2013,07,22,11,41,13.60
2013,07,22,11,42,13.60
2013,07,22,11,43,13.50
2013,07,22,11,44,13.50
2013,07,22,11,45,13.50
2013,07,22,11,46,13.50
2013,07,22,11,47,13.50
2013,07,22,11,48,13.50
2013,07,22,11,49,13.60
2013,07,22,11,50,13.60
2013,07,22,11,51,13.60
2013,07,22,11,52,13.70
2013,07,22,11,53,13.80
2013,07,22,11,54,13.80
2013,07,22,11,55,13.70
2013,07,22,11,56,13.60
2013,07,22,11,57,13.60
2013,07,22,11,58,13.70
2013,07,22,11,59,13.80
2013,07,22,12,00,13.80
2013,07,22,12,01,13.70
2013,07,22,12,02,13.70
2013,07,22,12,03,13.70
2013,07,22,12,04,13.60
2013,07,22,12,05,13.60
2013,07,22,12,06,13.70
2013,07,22,12,07,13.70
2013,07,22,12,08,13.90
2013,07,22,12,09,14.00
2013,07,22,12,10,14.00
2013,07,22,12,11,14.00
2013,07,22,12,12,14.00
2013,07,22,12,13,13.90
2013,07,22,12,14,14.00
2013,07,22,12,15,14.10
2013,07,22,12,16,14.20
2013,07,22,12,17,14.20
2013,07,22,12,18,14.20
2013,07,22,12,19,14.20
2013,07,22,12,20,14.20
2013,07,22,12,21,14.20
2013,07,22,12,22,14.20
2013,07,22,12,23,14.30
2013,07,22,12,24,14.40
2013,07,22,12,25,14.50
2013,07,22,12,26,14.50
2013,07,22,12,27,14.50
2013,07,22,12,28,14.50
2013,07,22,12,29,14.50
2013,07,22,12,30,14.60
2013,07,22,12,31,14.60
2013,07,22,12,32,14.50
2013,07,22,12,33,14.50
2013,07,22,12,34,14.50
2013,07,22,12,35,14.60
2013,07,22,12,36,14.60
2013,07,22,12,37,14.50
2013,07,22,12,38,14.50
2013,07,22,12,39,14.50
2013,07,22,12,40,14.50
2013,07,22,12,41,14.50
2013,07,22,12,42,14.60
2013,07,22,12,43,14.60
2013,07,22,12,44,14.70
2013,07,22,12,45,14.80
2013,07,22,12,46,14.90
2013,07,22,12,47,14.90
2013,07,22,12,48,14.90
2013,07,22,12,49,14.90
2013,07,22,12,50,14.90
2013,07,22,12,51,15.00
2013,07,22,12,52,15.00
2013,07,22,12,53,15.10
2013,07,22,12,54,15.20
2013,07,22,12,55,15.30
2013,07,22,12,56,15.30
2013,07,22,12,57,15.30
2013,07,22,12,58,15.40
2013,07,22,12,59,15.40
2013,07,22,13,00,15.40
2013,07,22,13,01,15.30
2013,07,22,13,02,15.30
2013,07,22,13,03,15.30
2013,07,22,13,04,15.30
2013,07,22,13,05,15.20
2013,07,22,13,06,15.20
2013,07,22,13,07,15.20
2013,07,22,13,08,15.20
2013,07,22,13,09,15.20
2013,07,22,13,10,15.20
2013,07,22,13,11,15.30
2013,07,22,13,12,15.50
2013,07,22,13,13,15.60
2013,07,22,13,14,15.70
2013,07,22,13,15,15.80
2013,07,22,13,16,15.80
2013,07,22,13,17,15.80
2013,07,22,13,18,15.80
2013,07,22,13,19,15.80
2013,07,22,13,20,15.80
2013,07,22,13,21,15.90
2013,07,22,13,22,15.90
2013,07,22,13,23,15.90
2013,07,22,13,24,15.90
2013,07,22,13,25,15.90
2013,07,22,13,26,16.00
2013,07,22,13,27,15.90
2013,07,22,13,28,15.90
2013,07,22,13,29,15.90
2013,07,22,13,30,16.00
2013,07,22,13,31,16.10
2013,07,22,13,32,16.20
2013,07,22,13,33,16.30
2013,07,22,13,34,16.30
2013,07,22,13,35,16.30
2013,07,22,13,36,16.30
2013,07,22,13,37,16.30
2013,07,22,13,38,16.40
2013,07,22,13,39,16.50
2013,07,22,13,40,16.60
2013,07,22,13,41,16.60
2013,07,22,13,42,16.60
2013,07,22,13,43,16.60
2013,07,22,13,44,16.50
2013,07,22,13,45,16.50
2013,07,22,13,46,16.40
2013,07,22,13,47,16.40
2013,07,22,13,48,16.40
2013,07,22,13,49,16.40
2013,07,22,13,50,16.40
2013,07,22,13,51,16.50
2013,07,22,13,52,16.50
2013,07,22,13,53,16.50
2013,07,22,13,54,16.50
2013,07,22,13,55,16.60
2013,07,22,13,56,16.60
2013,07,22,13,57,16.60
2013,07,22,13,58,16.60
2013,07,22,13,59,16.70
2013,07,22,14,00,16.70
2013,07,22,14,01,16.80
2013,07,22,14,02,16.80
2013,07,22,14,03,16.80
2013,07,22,14,04,16.90
2013,07,22,14,05,17.00
2013,07,22,14,06,17.00
2013,07,22,14,07,17.10
2013,07,22,14,08,17.30
2013,07,22,14,09,17.50
2013,07,22,14,10,17.70
2013,07,22,14,11,17.80
2013,07,22,14,12,17.80
2013,07,22,14,13,17.90
2013,07,22,14,14,17.90
2013,07,22,14,15,17.90
2013,07,22,14,16,17.80
2013,07,22,14,17,17.80
2013,07,22,14,18,17.80
2013,07,22,14,19,17.80
2013,07,22,14,20,17.80
2013,07,22,14,21,17.80
2013,07,22,14,22,17.80
2013,07,22,14,23,17.80
2013,07,22,14,24,17.80
2013,07,22,14,25,17.70
2013,07,22,14,26,17.70
2013,07,22,14,27,17.60
2013,07,22,14,28,17.70
2013,07,22,14,29,17.70
2013,07,22,14,30,17.60
2013,07,22,14,31,17.60
2013,07,22,14,32,17.50
2013,07,22,14,33,17.60
2013,07,22,14,34,17.70
2013,07,22,14,35,17.80
2013,07,22,14,36,17.90
2013,07,22,14,37,18.00
2013,07,22,14,38,18.10
2013,07,22,14,39,18.20
2013,07,22,14,40,18.20
2013,07,22,14,41,18.20
2013,07,22,14,42,18.20
2013,07,22,14,43,18.20
2013,07,22,14,44,18.30
2013,07,22,14,45,18.50
2013,07,22,14,46,18.60
2013,07,22,14,47,18.60
2013,07,22,14,48,18.70
2013,07,22,14,49,18.70
2013,07,22,14,50,18.70
2013,07,22,14,51,18.80
2013,07,22,14,52,18.90
2013,07,22,14,53,18.90
2013,07,22,14,54,18.90
2013,07,22,14,55,19.00
2013,07,22,14,56,18.90
2013,07,22,14,57,18.80
2013,07,22,14,58,18.70
2013,07,22,14,59,18.60
2013,07,22,15,00,18.50
2013,07,22,15,01,18.30
2013,07,22,15,02,18.10
2013,07,22,15,03,18.00
2013,07,22,15,04,17.80
2013,07,22,15,05,17.70
2013,07,22,15,06,17.60
2013,07,22,15,07,17.50
2013,07,22,15,08,17.60
2013,07,22,15,09,17.60
2013,07,22,15,10,17.70
2013,07,22,15,11,17.70
2013,07,22,15,12,17.80
2013,07,22,15,13,17.90
2013,07,22,15,14,18.00
2013,07,22,15,15,18.00
2013,07,22,15,16,18.10
2013,07,22,15,17,18.10
2013,07,22,15,18,18.00
2013,07,22,15,19,17.90
2013,07,22,15,20,17.90
2013,07,22,15,21,17.90
2013,07,22,15,22,18.00
2013,07,22,15,23,18.10
2013,07,22,15,24,18.30
2013,07,22,15,25,18.30
2013,07,22,15,26,18.40
2013,07,22,15,27,18.40
2013,07,22,15,28,18.50
2013,07,22,15,29,18.50
2013,07,22,15,30,18.60
2013,07,22,15,31,18.60
2013,07,22,15,32,18.70
2013,07,22,15,33,18.70
2013,07,22,15,34,18.70
2013,07,22,15,35,18.70
2013,07,22,15,36,18.70
2013,07,22,15,37,18.70
2013,07,22,15,38,18.70
2013,07,22,15,39,18.70
2013,07,22,15,40,18.70
2013,07,22,15,41,18.80
2013,07,22,15,42,18.80
2013,07,22,15,43,18.70
2013,07,22,15,44,18.70
2013,07,22,15,45,18.80
2013,07,22,15,46,18.90
2013,07,22,15,47,19.00
2013,07,22,15,48,19.00
2013,07,22,15,49,19.10
2013,07,22,15,50,19.20
2013,07,22,15,51,19.20
2013,07,22,15,52,19.20
2013,07,22,15,53,19.30
2013,07,22,15,54,19.30
2013,07,22,15,55,19.30
2013,07,22,15,56,19.30
2013,07,22,15,57,19.30
2013,07,22,15,58,19.30
2013,07,22,15,59,19.40
2013,07,22,16,00,19.40
2013,07,22,16,01,19.50
2013,07,22,16,02,19.50
2013,07,22,16,03,19.60
2013,07,22,16,04,19.50
2013,07,22,16,05,19.50
2013,07,22,16,06,19.50
2013,07,22,16,07,19.60
2013,07,22,16,08,19.70
2013,07,22,16,09,19.70
2013,07,22,16,10,19.70
2013,07,22,16,11,19.60
2013,07,22,16,12,19.60
2013,07,22,16,13,19.60
2013,07,22,16,14,19.60
2013,07,22,16,15,19.60
2013,07,22,16,16,19.60
2013,07,22,16,17,19.60
2013,07,22,16,18,19.60
2013,07,22,16,19,19.70
2013,07,22,16,20,19.80
2013,07,22,16,21,19.80
2013,07,22,16,22,19.90
2013,07,22,16,23,19.90
2013,07,22,16,24,20.00
2013,07,22,16,25,20.00
2013,07,22,16,26,20.00
2013,07,22,16,27,20.00
2013,07,22,16,28,20.00
2013,07,22,16,29,20.00
2013,07,22,16,30,20.00
2013,07,22,16,31,20.10
2013,07,22,16,32,20.00
2013,07,22,16,33,20.00
2013,07,22,16,34,19.90
2013,07,22,16,35,19.80
2013,07,22,16,36,19.80
2013,07,22,16,37,19.70
2013,07,22,16,38,19.70
2013,07,22,16,39,19.60
2013,07,22,16,40,19.60
2013,07,22,16,41,19.50
2013,07,22,16,42,19.40
2013,07,22,16,43,19.40
2013,07,22,16,44,19.30
2013,07,22,16,45,19.30
2013,07,22,16,46,19.30
2013,07,22,16,47,19.30
2013,07,22,16,48,19.40
2013,07,22,16,49,19.40
2013,07,22,16,50,19.50
2013,07,22,16,51,19.60
2013,07,22,16,52,19.70
2013,07,22,16,53,19.70
2013,07,22,16,54,19.80
2013,07,22,16,55,19.90
2013,07,22,16,56,20.00
2013,07,22,16,57,20.10
2013,07,22,16,58,20.20
2013,07,22,16,59,20.20
2013,07,22,17,00,20.20
2013,07,22,17,01,20.20
2013,07,22,17,02,20.20
2013,07,22,17,03,20.20
2013,07,22,17,04,20.30
2013,07,22,17,05,20.30
2013,07,22,17,06,20.30
2013,07,22,17,07,20.40
2013,07,22,17,08,20.50
2013,07,22,17,09,20.70
2013,07,22,17,10,20.80
2013,07,22,17,11,20.80
2013,07,22,17,12,20.70
2013,07,22,17,13,20.70
2013,07,22,17,14,20.60
2013,07,22,17,15,20.50
2013,07,22,17,16,20.50
2013,07,22,17,17,20.40
2013,07,22,17,18,20.40
2013,07,22,17,19,20.50